This is the latest recevied weather packets stored in our database for station/object N3WMC. If no packets are shown the sender has not sent any weather packets the latest 10 day(s).
| Time | Temp. | Humidity | Pressure | Rain* | Wind** | Luminosity | Snow |
|---|---|---|---|---|---|---|---|
| 1777583881 | 10.56° C | 64% | 1014.2 hPa | 0 mm | - | 188 W/m² | - |
| 1777583577 | 11.11° C | 62% | 1014.2 hPa | 0 mm | - | 131 W/m² | - |
| 1777583276 | 11.67° C | 59% | 1014.1 hPa | 0 mm | - | 346 W/m² | - |
| 1777582976 | 10.56° C | 63% | 1014.1 hPa | 0 mm | - | 470 W/m² | - |
| 1777582674 | 10° C | 64% | 1014.1 hPa | 0 mm | - | 204 W/m² | - |
| 1777582364 | 10° C | 64% | 1014.2 hPa | 0 mm | - | 168 W/m² | - |
| 1777582061 | 10° C | 67% | 1014.1 hPa | 0 mm | - | 132 W/m² | - |
| 1777581757 | 10° C | 66% | 1014.1 hPa | 0 mm | - | 166 W/m² | - |
| 1777581455 | 10° C | 68% | 1014.3 hPa | 0 mm | - | 218 W/m² | - |
| 1777581151 | 9.44° C | 69% | 1014.3 hPa | 0 mm | - | 146 W/m² | - |
| 1777580846 | 9.44° C | 69% | 1014.3 hPa | 0 mm | - | 95 W/m² | - |
| 1777580541 | 9.44° C | 70% | 1014.5 hPa | 0 mm | - | 90 W/m² | - |
| 1777580235 | 8.89° C | 70% | 1014.3 hPa | 0 mm | - | 87 W/m² | - |
| 1777579928 | 8.89° C | 70% | 1014.2 hPa | 0 mm | - | 61 W/m² | - |
| 1777579623 | 9.44° C | 69% | 1014.3 hPa | 0 mm | - | 60 W/m² | - |
| 1777579321 | 9.44° C | 70% | 1014.2 hPa | 0 mm | - | 92 W/m² | - |
| 1777579017 | 9.44° C | 68% | 1014.2 hPa | 0 mm | - | 178 W/m² | - |
| 1777578712 | 10° C | 70% | 1014.1 hPa | 0 mm | - | 242 W/m² | - |
| 1777578412 | 10° C | 69% | 1014.3 hPa | 0 mm | - | 256 W/m² | - |
| 1777578107 | 10° C | 69% | 1014.3 hPa | 0 mm | - | 179 W/m² | - |
| 1777577804 | 9.44° C | 68% | 1014.2 hPa | 0 mm | - | 207 W/m² | - |
| 1777577500 | 9.44° C | 68% | 1014 hPa | 0 mm | - | 166 W/m² | - |
| 1777577197 | 9.44° C | 70% | 1014.3 hPa | 0 mm | - | 133 W/m² | - |
| 1777576893 | 9.44° C | 69% | 1014.3 hPa | 0 mm | - | 128 W/m² | - |
| 1777576592 | 10° C | 70% | 1014.2 hPa | 0 mm | - | 198 W/m² | - |
* Rain latest hour (hover to see other rain measurements)
** Current wind speed in m/s (hover to see current wind gust speed)